Location: LDNL
(36.4545°S, 141.6685°E)
Time: 15:03:28
(UTC+10:00)

Hubble Space Telescope - Pass Details

Date: 29 June 2022
Orbit: 532 x 535 km, 28.5° (Epoch: 10 August)

Event Time Altitude Azimuth Distance (km) Brightness Sun altitude
Exits shadow 05:46:48 25° 349° (N) 1,106 2.3 -23.2°
Maximum altitude 05:47:24 26° 4° (N) 1,077 2.4 -23.1°
Drops below altitude 10° 05:50:53 10° 61° (ENE) 1,791 4.5 -22.4°
Sets 05:53:25 0° 74° (ENE) 2,683 5.9 -21.9°
